Regional Weather Roundup
Issued by NWS Newport/Morehead, NC

Home | Current Version | Previous Version | Text Only | Print | Product List | Glossary On
Versions: 1 2 3 4 5 6 7 8 9 10 11 12 13 14 15 16 17 18 19 20 21 22 23 24 25 26 27 28 29 30 31 32 33 34 35 36 37 38 39 40 41 42 43 44 45 46 47 48 49 50
000
ASUS42 KMHX 210426
RWRMHX
WEATHER ROUNDUP FOR EASTERN NORTH CAROLINA
NATIONAL WEATHER SERVICE NEWPORT/MOREHEAD CITY NC
1200 AM EDT SAT APR 21 2018

NOTE: "FAIR" INDICATES FEW OR NO CLOUDS BELOW 12,000 FEET
WITH NO SIGNIFICANT WEATHER AND/OR OBSTRUCTIONS TO VISIBILITY

NCZ015>017-031-032-045>047-102-103-210500-
NORTH COAST

CITY           SKY/WX    TMP DP  RH WIND       PRES   REMARKS
EDENTON        FAIR      46  40  78 E6        30.40R
ELIZABETH CITY FAIR      47  38  71 SE3       30.38S
KITTY HAWK     FAIR      43  35  72 CALM      30.37S
MANTEO         FAIR      39  36  86 CALM      30.39S

$$

NCZ045>047-081-094-103-104-210500-
CENTRAL COAST

CITY           SKY/WX    TMP DP  RH WIND       PRES   REMARKS
FRISCO         FAIR      47  37  68 NE5       30.38R

$$

NCZ095-097-098-100-101-210500-
SOUTHERN COAST

CITY           SKY/WX    TMP DP  RH WIND       PRES   REMARKS
BEAUFORT       FAIR      48  42  80 NE3       30.37R
CEDAR ISLAND   NOT AVBL
JACKSONVILLE   FAIR      44  42  93 CALM      30.36R
PINEY ISLAND   NOT AVBL
WILMINGTON     FAIR      45  41  86 CALM      30.36R


$$

NCZ011>013-027>030-043-044-078>080-089-090>093-098-210500-
COASTAL PLAIN

CITY           SKY/WX    TMP DP  RH WIND       PRES   REMARKS
AHOSKIE        FAIR      42  38  85 CALM      30.38R
CLINTON        FAIR      46  37  71 CALM      30.36S
ELIZABETHTOWN  FAIR      47  39  74 MISG      30.36R
GOLDSBORO      FAIR      45  35  66 CALM      30.34S
GREENVILLE     FAIR      46  37  71 SE5       30.37S
HAVELOCK       NOT AVBL
KENANSVILLE    FAIR      39  36  87 CALM      30.36S
KINSTON        FAIR      41  37  83 CALM      30.36S
NEW BERN       FAIR      43  40  89 S3        30.38S
RICHLANDS      FAIR      41  38  89 CALM      30.37R
ROCKY MOUNT    FAIR      41  36  82 CALM      30.35S
WASHINGTON     FAIR      45  40  83 CALM      30.38R
WHITEVILLE     FAIR      46  41  83 CALM      30.35R

$$

AMZ130-135-150-152-154-156-158-170-250-252-270-ANZ085-086-088-633-658-670-210500-
MARINE OBSERVATIONS

STATION/POSITION TIME  TEMP    WIND        PRES    WAVE   SWELL
                       AIR SEA DIR/SP/G            HT/PER HT/PER
                 (UTC) (F)     (DEG/KT/KT) (MB)    (FT/S) (FT/S)
CHESAPEAKE LIGHT NOT AVBL
64 E VA BEACH    0350   47 48  240/  2/  4 1028.8    3/ 8   3/ 8
DUCK             0400   47 52  180/  5/  6 1028.3
2 E DUCK         0400      51                N/A     2/ 8   2/14
OREGON INLET     0400   46 56   CALM  /  2 1028.8
13E OREGON INLT  0348      50                N/A     3/ 8   3/ 8
HATTERAS CG      0400   49 60   80/  4/  5 1028.5
DIAMOND BUOY     0410   54 69   30/ 14/ 17 1028.6
CAPE LOOKOUT     0400           50/  7/  7 1028.5
BEAUFORT LAB     0400   51 63   50/  3/  4 1028.5
30 SE NEW RVR IN 0408   58 66   80/  6/ 10 1028.1
30 SE NEW RVR IN 0400      66                N/A     3/10
27 SE WRIGHTSVLE 0408   60 66  100/ 12/ 17 1027.9
5 SE WRIGHTSVLE  0408   58 60  110/  4/  6 1027.4
225 S CAPE HAT   0410   63 72   50/ 16/ 19 1026.0
41 SE CHARLESTON 0410   63 67   80/ 14/ 17 1026.5

$$




USA.gov is the U.S. government's official web portal to all federal, state and local government web resources and services.